User: anonymous   Login
Location: *
(33.8649°S, 62.1526°E)
Time: 18:45:16
(UTC+00:00)
Language:

Cosmos 1340 Rocket - Orbit

View from above orbital plane
View from above orbital plane
View from above satellite
View from above satellite

Ground track
Ground track

The orbit data is extracted from the following two-line orbital elements,

1 13068U 82013B   21104.43646860  .00001131  00000-0  72378-4 0  9994
2 13068  81.2029  66.4821 0022578  22.8148 337.4074 15.07605176133719
Epoch (UTC): 14 April 2021 10:28:30
Eccentricity: 0.0022578
inclination: 81.2029°
perigee height: 528 km
apogee height: 559 km
right ascension of ascending node: 66.4821°
argument of perigee: 22.8148°
revolutions per day: 15.07605176
mean anomaly at epoch: 337.4074°
orbit number at epoch: 13371

The dashed part of the orbit path shows where the satellite is in the earth's shadow,  

DLR